Location: Haram ta Haram Freeway
(35.0583°N, 51.4202°E)
Time: 14:54:32
(UTC+04:30)

CAS-4A - Pass Details

Date: 09 July 2020
Orbit: 528 x 545 km, 43.0° (Epoch: 02 August)

Event Time Altitude Azimuth Distance (km) Brightness Sun altitude
Exits shadow 04:17:06 18° 286° (WNW) 1,376 ? -17.4°
Maximum altitude 04:19:41 36° 344° (NNW) 860 ? -17.0°
Drops below altitude 10° 04:23:28 10° 52° (NE) 1,781 ? -16.5°
Sets 04:25:50 0° 61° (ENE) 2,670 ? -16.1°
